Vertical_Velocity
4 -3 -5 -2 -2 -4 -4 -4 -1 -2 1 0 1 0 4 2 1 -2 1 1 1 0 -11 2 0 -1 -2 1 1 2 4 3 1 4 1 -2 1 -2 2 -3 -4 -5 -1 -1 3 3 -3 -1 3 4 4 0 -2 -1
4 -5 -1 -4 5 2 2 3 -2 -3 1 -5 1 1 0 -1 -0 -0 -2 -2 1 1 -8 1 1 -4 -5 2 -0 -0 4 -0 -2 1 2 1 1 2 -1 -0 2 4 -5 -4 -3 -7 0 -1 2 3 -2 0 0 -0
1 9 4 2 -5 -8 4 5 -1 -2 -3 -3 2 -1 -3 -3 1 6 -1 -2 -1 4 -23 6 1 2 -2 -5 9 3 -2 3 1 2 -2 -1 1 0 -1 -2 2 1 -0 1 4 -3 -4 -0 1 -1 -12 3 -0 1
3 -2 3 -6 -5 -5 6 1 -3 -2 -5 -3 4 1 -0 -1 3 5 0 2 0 -1 5 -12 1 -5 2 -0 -1 -11 -6 7 2 3 1 -1 0 1 0 2 1 -1 2 -3 -3 -1 0 -1 0 2 0 0 -2 1
-9 1 -2 -2 -0 -1 -1 1 7 0 -3 -1 -0 2 -0 -1 -0 -0 -0 1 4 2 1 -8 -9 -0 -3 1 -1 1 7 5 -4 4 1 -0 -0 1 1 2 0 -3 -5 -2 -4 -2 -1 0 -1 -3 -2 -2 -0 -2
8 7 2 4 1 4 2 -1 1 -2 -5 1 2 1 1 -0 1 1 -1 0 -2 -3 4 1 -4 1 4 3 6 1 5 2 -1 7 -0 -2 1 1 0 -0 -5 -1 -1 0 -0 -2 -1 2 2 -1 -2 -2 -1 -1
0 -2 1 -2 -1 2 -0 -2 -2 -3 -4 6 -4 1 -1 2 -1 -2 -1 0 1 -1 4 -3 -3 -5 5 -0 3 -1 9 -6 4 -6 3 -1 0 -1 1 0 -2 -1 0 0 0 0 -1 -1 1 -0 -1 -3 -2 -0
-8 -3 3 4 -1 3 -2 -1 -5 -1 -3 -1 -3 -1 1 0 -2 -1 0 3 -0 3 1 2 -6 0 -2 3 3 -2 -4 -3 2 -3 3 -1 3 1 1 -7 1 -0 1 0 1 -0 -1 -2 -2 -1 -0 -2 -1 -1
-3 -2 -5 1 0 -3 3 -3 -1 -0 -1 -4 -3 -1 3 -2 -0 1 -1 2 1 -2 2 2 2 -0 1 1 4 -4 -1 1 -1 0 1 0 1 -2 -7 -2 0 -3 -3 -1 -1 -2 -1 1 0 -1 -1 -1 -1 -0
-4 -2 0 -0 -1 -1 3 -6 1 1 -4 -3 -1 1 -0 -3 1 -2 15 4 4 2 2 1 -1 -2 4 1 0 -0 1 -0 1 -2 -1 2 -3 -4 1 2 2 1 1 -1 -1 -2 -1 -1 1 1 -1 -0 -1 -1
-3 1 -1 -2 -1 2 -4 -0 1 2 -6 0 -3 -1 -1 -1 -2 0 1 3 1 2 -0 -5 -0 1 4 1 -0 -0 -0 0 1 1 2 -0 -2 1 1 0 0 -2 -0 1 -1 -2 -1 -1 -2 -3 -0 1 -1 -1
5 1 2 2 -1 1 0 -0 1 2 -5 0 -1 -3 -1 -0 1 4 -1 1 2 -1 3 2 1 -0 -1 1 -1 1 -1 0 0 0 2 -0 1 0 1 0 -1 -1 0 -1 -1 -1 0 0 0 1 0 0 1 1
-0 -2 4 3 -2 2 1 -0 4 -3 1 -1 -1 -2 3 -2 4 3 -1 1 1 1 -1 -2 -1 1 -1 -0 -0 -0 2 0 0 2 -2 -2 0 0 -1 -0 1 0 -1 -2 -2 -3 -1 0 0 1 1 1 1 1
-1 6 3 3 -4 1 2 3 -0 -0 2 -1 -1 0 0 1 -0 -1 0 1 -0 0 -1 1 -0 2 -0 -0 0 0 0 1 1 1 -3 -0 -2 -0 -0 -0 -1 0 0 1 1 0 -0 1 1 1 0 -0 0 0
7 9 4 5 -5 7 4 5 -1 3 -3 -2 0 -2 0 -1 -1 -0 -0 -1 -0 -0 0 -1 -0 2 -0 1 0 0 3 -0 -1 -3 -1 -1 -1 -1 -1 -0 -3 -1 -1 1 1 0 1 1 1 1 1 0 -0 -1
17 22 11 -0 1 4 7 3 -2 -3 -2 -1 1 1 -1 0 -1 -0 -1 -1 0 -0 -1 2 0 1 -1 0 2 -2 1 -2 -3 -1 -1 -1 -1 -0 -0 -1 -0 -1 -0 -0 -1 -0 -1 -1 -0 -0 -0 -0 -0 -0
20 -4 -8 -1 9 11 5 0 -1 -4 -1 1 -2 -1 -0 -0 -1 -1 -0 -1 -0 -1 0 1 2 -2 1 1 1 -1 -3 -2 -1 -1 -1 0 -3 -2 -1 -1 -1 -1 -0 0 0 -0 -0 0 0 -0 1 0 -0 -0
-0 -5 3 0 -5 3 4 -2 -4 0 -1 -0 1 1 -0 0 -0 -1 0 -0 1 1 0 0 -0 1 0 0 -1 -2 -0 -1 -1 0 1 0 -0 -2 -1 -1 -1 -1 -0 -0 -0 -0 -1 -1 -1 -1 -1 -1 -1 -1
1 -5 -2 1 1 -5 -2 0 -2 -0 -2 -0 -1 0 0 0 -1 -0 0 2 1 -1 0 1 2 -1 -3 -2 -1 -1 -0 -2 -0 0 -0 0 1 1 -0 -1 -1 -0 -0 -1 -1 -1 -1 -1 -1 -1 -1 -1 -1 -1
7 5 2 3 3 -3 -1 -0 -1 1 -0 -0 -2 -1 -0 1 0 1 0 -1 -1 -0 3 1 -3 -3 -3 -0 -0 -1 3 -0 -2 -0 -1 -2 -1 0 1 1 -0 -1 -1 -1 -1 -0 -1 -1 -1 -1 -1 -1 -0 0
5 14 3 1 -4 -1 1 0 -1 -1 -0 0 -0 -0 1 1 1 1 2 4 3 -1 -1 -4 -6 -1 4 -2 2 1 2 -1 -4 3 2 -0 -0 0 0 0 -0 -0 -0 -0 0 -0 -0 -0 -1 -1 -1 -1 0 1
-3 3 -2 2 1 0 1 1 -2 -1 1 -1 0 -0 -0 -1 -0 1 0 -1 -1 -5 -4 -3 -2 -1 -3 -1 4 2 1 0 1 0 2 0 -2 -2 -3 -0 -1 -0 -1 -1 -1 -1 -2 -1 -1 -1 -1 -1 -1 -2
-1 0 -1 -1 0 1 1 0 -0 0 -1 -1 -0 -1 -0 -0 0 -1 -1 -2 -5 -4 0 -1 0 1 -1 0 -2 -1 1 -0 -0 0 0 1 1 0 -1 -1 -0 -1 -0 -1 -1 -1 -1 -1 -0 -1 -2 -2 -1 -1
2 -4 -1 -1 -0 1 1 -0 0 0 -1 -0 -0 -1 -0 -0 0 -1 -1 -2 -4 0 1 3 1 -1 -0 -1 -2 1 3 2 2 2 1 0 -1 -1 -0 0 -0 -1 0 -1 -0 -0 -0 1 1 1 0 0 -0 -1
-2 2 -1 1 1 -2 -0 0 0 0 -0 -0 -0 -1 -0 0 0 0 -1 -6 -1 0 0 0 1 0 -0 -1 -3 -4 -5 -2 -1 -0 2 1 2 -1 -2 -1 -1 -0 -2 -1 1 -0 -0 -0 1 1 -1 -2 -2 -2
-3 2 -0 -1 1 -2 -1 -0 -0 -2 -0 0 -2 -0 -0 -0 -0 -4 -3 -2 -1 1 1 0 -2 -2 -0 1 0 0 -1 -1 -1 -4 -1 -3 -2 -1 -0 -1 -1 -1 -1 -0 0 -1 0 -0 -1 -2 -1 -2 -1 -1
-1 -0 0 -0 -1 -0 -0 0 1 -1 -0 -1 -1 1 -1 -0 -2 -8 -1 -1 -1 0 1 1 1 1 1 -0 1 1 0 -1 -1 0 0 -2 -1 -0 0 -1 -1 5 0 -0 -1 -1 -1 -1 -0 0 0 0 1 -0
1 -2 -3 -2 0 1 -2 0 -0 -2 -2 -1 1 -2 -2 -6 -8 -2 0 1 -2 -4 -2 -1 -2 -1 0 2 2 0 2 1 1 -0 -1 -2 -2 -2 -2 -1 0 0 -0 -1 1 0 1 1 1 2 1 0 3 1
-1 -5 -1 0 1 1 -2 -3 -3 -3 0 -2 -2 -1 -5 -2 -4 -2 3 5 4 -0 -3 -7 -2 4 -4 -2 -1 1 1 1 1 -1 -1 -4 1 -3 2 2 0 -1 -0 1 0 -0 2 1 1 1 0 -1 0 0
-2 2 1 1 -1 -3 -11 -2 -3 -1 0 -0 -0 -2 -5 -12 -16 -2 -5 -3 -4 -7 -7 -5 -2 1 -5 3 -4 2 3 2 2 2 -1 -2 1 5 -1 1 1 -0 0 0 0 0 1 0 -0 -0 -1 -4 -3 -2
0 3 1 1 -3 -4 -1 1 2 2 2 -2 1 -0 -10 -8 -16 -13 -8 -3 -5 -2 -1 -5 -3 2 2 -1 1 0 -8 4 1 3 3 2 3 3 2 1 1 1 1 0 1 2 2 1 -1 -2 -1 -1 0 -1
2 -2 -1 -0 -3 -1 3 1 1 0 -0 -0 -5 1 -3 0 -6 -12 -9 0 -1 -5 -6 4 -1 -5 7 2 0 2 1 1 2 0 1 0 3 2 1 2 1 1 1 0 1 1 -0 -1 -1 -0 -1 -1 -1 -2
2 1 1 -1 -0 0 1 -0 1 -1 1 -1 -3 2 1 0 -7 -13 -9 -1 1 3 4 4 2 1 1 0 1 0 1 0 -1 -0 1 1 1 2 1 0 0 1 0 -0 -0 -0 0 -1 -1 1 -0 -2 -1 -1
Height
1491 1492 1493 1493 1494 1492 1494 1495 1495 1496 1494 1492 1489 1487 1484 1483 1482 1481 1480 1478 1478 1476 1468 1466 1466 1466 1465 1464 1459 1462 1462 1463 1464 1462 1462 1463 1459 1459 1460 1460 1465 1465 1470 1473 1475 1477 1470 1455 1459 1458 1457 1457 1458 1458
1486 1487 1488 1490 1490 1489 1490 1490 1490 1491 1490 1489 1487 1484 1482 1480 1480 1478 1478 1477 1476 1475 1467 1463 1461 1461 1462 1463 1465 1460 1457 1455 1454 1455 1459 1458 1458 1461 1455 1456 1463 1464 1457 1458 1459 1455 1452 1454 1454 1454 1456 1457 1457 1457
1483 1483 1484 1485 1487 1489 1488 1486 1486 1486 1486 1485 1483 1480 1478 1477 1477 1476 1475 1474 1473 1469 1460 1454 1449 1451 1451 1451 1458 1462 1455 1454 1452 1452 1454 1454 1452 1454 1452 1452 1453 1457 1459 1456 1457 1447 1451 1453 1454 1454 1456 1455 1455 1455
1478 1481 1481 1482 1483 1485 1486 1484 1483 1482 1482 1483 1481 1478 1476 1475 1473 1473 1472 1471 1471 1470 1463 1449 1446 1446 1446 1447 1449 1451 1452 1451 1451 1451 1450 1449 1449 1452 1450 1451 1450 1450 1455 1451 1450 1449 1450 1450 1451 1452 1452 1453 1452 1452
1474 1475 1476 1477 1479 1481 1482 1483 1481 1479 1479 1478 1477 1475 1473 1472 1470 1469 1467 1465 1465 1468 1460 1449 1443 1438 1438 1436 1440 1445 1447 1451 1454 1449 1447 1445 1449 1451 1453 1454 1448 1447 1444 1444 1440 1442 1443 1445 1448 1449 1450 1449 1448 1447
1471 1470 1473 1475 1477 1478 1479 1479 1478 1477 1477 1476 1474 1472 1470 1468 1466 1465 1463 1462 1461 1461 1460 1451 1441 1434 1433 1432 1436 1441 1444 1448 1451 1445 1441 1444 1444 1446 1446 1444 1437 1439 1439 1440 1440 1442 1443 1444 1445 1445 1446 1445 1444 1443
1470 1470 1472 1472 1475 1475 1475 1476 1475 1474 1474 1473 1471 1469 1467 1464 1462 1463 1463 1461 1460 1460 1459 1452 1442 1434 1432 1433 1436 1440 1443 1445 1447 1445 1437 1439 1442 1443 1444 1438 1432 1434 1437 1438 1439 1440 1442 1442 1443 1443 1442 1441 1440 1439
1466 1466 1467 1469 1470 1471 1471 1470 1470 1470 1470 1470 1467 1465 1462 1460 1460 1460 1459 1458 1458 1458 1457 1453 1441 1434 1432 1432 1434 1437 1439 1442 1437 1437 1435 1438 1442 1442 1437 1429 1430 1432 1434 1436 1437 1437 1439 1439 1439 1438 1437 1436 1435 1435
1460 1462 1463 1464 1467 1468 1467 1468 1468 1466 1465 1465 1464 1462 1461 1459 1459 1458 1457 1456 1456 1459 1454 1450 1440 1430 1428 1430 1430 1434 1436 1435 1433 1435 1434 1437 1435 1432 1425 1425 1427 1429 1432 1433 1434 1435 1435 1435 1434 1434 1433 1432 1431 1430
1455 1456 1457 1458 1461 1464 1464 1465 1465 1463 1462 1461 1461 1461 1459 1458 1458 1458 1456 1455 1454 1453 1452 1447 1440 1433 1428 1426 1427 1429 1430 1430 1431 1433 1433 1432 1426 1422 1422 1423 1424 1426 1428 1430 1431 1432 1432 1431 1430 1429 1428 1427 1426 1425
1449 1451 1451 1453 1456 1458 1460 1461 1462 1460 1461 1459 1459 1460 1458 1457 1457 1456 1453 1452 1449 1447 1445 1439 1435 1431 1426 1425 1427 1429 1429 1430 1429 1429 1429 1426 1419 1419 1420 1422 1423 1425 1427 1427 1428 1429 1428 1427 1426 1425 1423 1422 1420 1420
1443 1446 1447 1449 1452 1455 1457 1458 1458 1458 1458 1458 1458 1458 1457 1456 1455 1454 1448 1446 1444 1437 1436 1434 1432 1431 1427 1426 1427 1429 1429 1432 1426 1429 1429 1420 1416 1420 1421 1422 1423 1425 1425 1426 1426 1425 1424 1424 1423 1421 1420 1417 1416 1415
1438 1441 1443 1444 1448 1451 1454 1457 1457 1457 1456 1455 1456 1457 1456 1455 1452 1447 1441 1439 1438 1436 1436 1434 1432 1430 1429 1428 1429 1429 1426 1427 1430 1428 1420 1414 1419 1420 1421 1422 1423 1424 1424 1425 1425 1423 1422 1421 1420 1418 1417 1415 1414 1413
1432 1434 1437 1439 1445 1449 1451 1453 1455 1455 1455 1454 1456 1454 1451 1447 1444 1440 1439 1438 1438 1437 1436 1434 1432 1431 1429 1429 1429 1429 1429 1429 1426 1422 1415 1414 1417 1419 1420 1422 1423 1424 1424 1423 1424 1423 1422 1421 1419 1417 1416 1415 1414 1413
1425 1428 1432 1436 1441 1446 1449 1451 1452 1453 1453 1454 1455 1451 1445 1442 1441 1440 1439 1439 1438 1437 1435 1434 1433 1432 1430 1429 1428 1429 1427 1423 1418 1411 1412 1413 1415 1418 1420 1421 1423 1424 1424 1424 1423 1422 1421 1420 1418 1417 1415 1414 1413 1412
1420 1425 1427 1433 1438 1442 1446 1448 1450 1452 1451 1451 1449 1447 1442 1442 1440 1439 1438 1438 1437 1436 1435 1434 1432 1430 1428 1427 1427 1423 1422 1415 1411 1412 1411 1412 1415 1418 1420 1421 1422 1423 1424 1423 1423 1422 1420 1419 1418 1416 1415 1413 1412 1411
1415 1418 1423 1430 1436 1439 1443 1446 1448 1448 1449 1446 1442 1440 1440 1440 1438 1437 1437 1437 1436 1436 1434 1433 1429 1426 1428 1423 1423 1419 1416 1411 1409 1409 1410 1412 1414 1417 1420 1421 1422 1423 1423 1423 1422 1421 1419 1418 1417 1415 1414 1412 1410 1409
1409 1415 1422 1426 1432 1436 1440 1443 1446 1445 1442 1439 1439 1436 1436 1436 1435 1435 1435 1435 1436 1435 1435 1433 1433 1428 1422 1418 1415 1411 1409 1409 1409 1409 1410 1412 1414 1417 1419 1420 1421 1421 1421 1421 1420 1419 1418 1417 1416 1414 1413 1411 1410 1408
1406 1412 1419 1426 1430 1435 1438 1441 1443 1439 1436 1435 1434 1434 1433 1432 1432 1433 1434 1433 1434 1434 1434 1432 1430 1425 1418 1414 1412 1410 1409 1410 1411 1410 1411 1413 1414 1415 1416 1418 1419 1419 1419 1419 1418 1418 1417 1416 1415 1413 1412 1410 1409 1408
1408 1413 1420 1426 1430 1433 1435 1436 1438 1436 1433 1433 1432 1432 1432 1430 1429 1429 1429 1430 1432 1433 1431 1427 1418 1412 1412 1411 1411 1410 1409 1408 1410 1410 1410 1411 1412 1413 1414 1415 1416 1416 1416 1416 1416 1416 1415 1414 1413 1412 1411 1410 1408 1407
1411 1416 1421 1425 1429 1432 1432 1431 1432 1433 1431 1430 1430 1430 1428 1427 1427 1427 1427 1428 1429 1425 1419 1412 1408 1409 1410 1410 1410 1410 1409 1408 1408 1408 1408 1408 1409 1410 1411 1412 1412 1413 1413 1413 1413 1413 1413 1413 1412 1411 1410 1408 1407 1405
1409 1416 1421 1425 1427 1428 1429 1429 1431 1430 1431 1429 1429 1428 1427 1426 1425 1425 1425 1425 1420 1411 1409 1405 1405 1405 1405 1404 1404 1404 1405 1404 1404 1404 1404 1404 1405 1406 1407 1408 1409 1409 1410 1410 1411 1411 1410 1410 1409 1409 1408 1407 1406 1404
1411 1416 1420 1422 1424 1425 1429 1428 1429 1429 1429 1428 1428 1427 1427 1426 1425 1425 1424 1418 1409 1403 1402 1401 1400 1398 1397 1397 1397 1398 1398 1398 1399 1400 1400 1401 1402 1403 1403 1404 1405 1406 1407 1407 1407 1407 1407 1406 1406 1405 1404 1404 1402 1401
1412 1416 1417 1419 1421 1425 1427 1427 1428 1428 1428 1429 1430 1428 1427 1426 1425 1425 1422 1411 1401 1400 1399 1398 1395 1392 1391 1390 1390 1391 1392 1392 1393 1394 1395 1396 1398 1399 1400 1401 1401 1403 1404 1404 1404 1403 1402 1402 1401 1401 1400 1400 1399 1398
1412 1415 1416 1418 1420 1423 1426 1428 1428 1428 1428 1432 1431 1426 1426 1426 1426 1425 1419 1404 1399 1398 1396 1394 1391 1389 1387 1387 1387 1388 1388 1387 1388 1389 1391 1393 1394 1395 1396 1396 1398 1399 1399 1399 1399 1399 1399 1398 1397 1397 1396 1395 1394 1393
1408 1410 1413 1413 1418 1420 1422 1424 1425 1426 1427 1430 1427 1425 1425 1426 1427 1416 1406 1398 1397 1396 1395 1394 1392 1391 1389 1387 1386 1385 1385 1384 1385 1385 1387 1388 1389 1391 1392 1392 1393 1394 1394 1394 1394 1394 1393 1392 1391 1391 1390 1390 1388 1387
1408 1410 1411 1412 1414 1416 1420 1421 1422 1423 1425 1423 1420 1423 1424 1425 1416 1400 1393 1394 1395 1395 1395 1394 1393 1392 1390 1389 1387 1385 1384 1384 1383 1384 1384 1384 1385 1386 1387 1387 1388 1389 1389 1389 1388 1388 1387 1386 1385 1384 1384 1383 1382 1381
1406 1408 1411 1412 1412 1413 1415 1417 1418 1417 1412 1411 1414 1417 1414 1408 1397 1390 1390 1391 1391 1391 1391 1391 1391 1390 1389 1387 1385 1384 1382 1381 1381 1381 1380 1380 1381 1381 1382 1382 1382 1382 1382 1382 1381 1380 1379 1379 1378 1378 1377 1377 1376 1375
1405 1405 1407 1407 1409 1409 1407 1407 1404 1400 1398 1399 1401 1399 1394 1389 1389 1389 1388 1386 1385 1384 1384 1384 1384 1383 1382 1381 1380 1379 1378 1378 1377 1375 1374 1374 1375 1375 1375 1375 1375 1374 1374 1374 1373 1373 1373 1372 1372 1371 1370 1369 1368 1367
1400 1400 1401 1402 1404 1403 1396 1396 1393 1393 1393 1393 1392 1389 1386 1383 1384 1384 1381 1379 1376 1374 1374 1373 1372 1370 1369 1369 1368 1368 1368 1368 1368 1367 1366 1365 1367 1368 1367 1367 1366 1366 1366 1366 1366 1366 1365 1365 1364 1364 1362 1361 1360 1358
1394 1395 1396 1396 1394 1389 1389 1389 1388 1388 1387 1386 1385 1383 1377 1373 1369 1368 1366 1364 1362 1361 1358 1357 1357 1357 1356 1355 1355 1355 1354 1356 1355 1355 1356 1356 1357 1358 1359 1359 1358 1358 1358 1358 1358 1358 1358 1357 1357 1356 1355 1354 1353 1351
1387 1387 1388 1390 1385 1384 1384 1383 1382 1381 1379 1377 1375 1373 1370 1368 1360 1352 1349 1348 1346 1345 1344 1345 1344 1345 1346 1345 1345 1345 1345 1345 1345 1345 1346 1348 1349 1350 1350 1351 1351 1351 1351 1351 1351 1350 1350 1350 1349 1349 1347 1347 1346 1345
1383 1384 1384 1384 1381 1378 1378 1380 1378 1375 1373 1368 1364 1362 1360 1360 1354 1345 1339 1336 1335 1334 1334 1334 1335 1335 1335 1336 1336 1337 1337 1337 1337 1339 1340 1342 1342 1343 1344 1343 1343 1343 1343 1343 1343 1343 1343 1343 1342 1342 1341 1341 1341 1340